DW5657 Weather Reports


Display with metric or nautical units.
time (UTC)temp
F
wind
direction
speed
MPH
gust
MPH
rain 1hr
in
rain 24hr
in
rain mn
in
humidity
%
barometer
mb
20260506090204 45 13 0.0 1.0 0.00 0.03 0.02 92 1007.2
20260506085704 45 16 0.0 2.0 0.00 0.03 0.02 92 1007.1
20260506085204 45 5 0.0 0.0 0.00 0.03 0.02 92 1007.3
20260506084205 45 18 1.0 6.0 0.00 0.03 0.02 92 1007.6
20260506083704 45 21 0.0 2.0 0.00 0.03 0.02 92 1007.6
20260506083205 45 33 0.0 6.0 0.00 0.03 0.02 92 1007.5
20260506082704 46 193 2.0 6.0 0.00 0.03 0.02 92 1007.3
20260506082204 46 195 1.0 3.0 0.00 0.03 0.02 92 1007.2
20260506081704 46 196 0.0 5.0 0.00 0.03 0.02 92 1007.1
20260506081203 46 0 2.0 8.0 0.00 0.03 0.02 92 1006.9
20260506080705 46 359 2.0 5.0 0.00 0.03 0.02 92 1007.1
20260506080203 47 188 2.0 5.0 0.00 0.03 0.02 92 1007.0
20260506073204 47 157 1.0 3.0 0.00 0.03 0.02 92 1006.9
20260506072704 47 197 0.0 2.0 0.00 0.03 0.02 92 1006.9
20260506072204 47 189 0.0 2.0 0.00 0.03 0.02 92 1007.1
20260506071204 47 178 0.0 3.0 0.00 0.03 0.02 92 1006.8
20260506070704 48 18 1.0 3.0 0.00 0.03 0.02 92 1006.6
20260506070204 48 172 0.0 7.0 0.00 0.03 0.02 92 1006.6
20260506062204 48 178 1.0 3.0 0.00 0.03 0.02 91 1006.1
20260506061704 49 9 1.0 5.0 0.00 0.03 0.02 91 1005.9
20260506061204 49 174 1.0 3.0 0.00 0.03 0.02 91 1006.0
20260506060704 49 9 1.0 3.0 0.02 0.03 0.02 91 1006.1
20260506060204 50 357 0.0 0.0 0.02 0.03 0.02 91 1006.2
20260506051204 53 14 0.0 3.0 0.02 0.03 0.02 90 1006.1
20260506050705 54 26 0.0 5.0 0.00 0.01 0.00 90 1006.0
20260506050204 54 166 1.0 2.0 0.00 0.01 0.00 90 1005.7
20260506044705 56 138 0.0 5.0 0.00 0.01 0.00 90 1005.7
20260506044204 57 162 0.0 5.0 0.00 0.01 0.00 90 1005.4
20260506043704 58 137 1.0 3.0 0.00 0.01 0.00 91 1005.4
20260506043204 59 155 0.0 0.0 0.00 0.01 0.00 92 1005.4
20260506042704 59 90 0.0 0.0 0.00 0.01 0.00 93 1005.4
20260506042204 59 91 0.0 0.0 0.00 0.01 0.00 93 1005.4
20260506041705 59 90 0.0 0.0 0.00 0.01 0.00 93 1005.5
20260506041205 59 91 0.0 0.0 0.00 0.01 0.00 93 1005.5
20260506040204 60 61 0.0 0.0 0.00 0.01 0.00 93 1005.3
20260506035704 60 58 0.0 0.0 0.00 0.01 0.01 93 1005.2
20260506035204 60 59 0.0 0.0 0.00 0.01 0.01 93 1005.3
20260506034704 60 59 0.0 0.0 0.00 0.01 0.01 93 1005.3
20260506034204 60 51 0.0 0.0 0.00 0.01 0.01 93 1005.4
20260506033705 60 51 0.0 0.0 0.00 0.01 0.01 93 1005.4
20260506033205 60 57 0.0 0.0 0.00 0.01 0.01 93 1005.3
20260506032704 60 105 0.0 0.0 0.00 0.01 0.01 93 1005.4
20260506032204 60 106 0.0 0.0 0.00 0.01 0.01 93 1005.5
20260506031204 60 106 0.0 0.0 0.00 0.01 0.01 93 1005.6
20260506030704 60 106 0.0 0.0 0.00 0.01 0.01 93 1005.7
20260506030205 60 105 0.0 0.0 0.00 0.01 0.01 92 1005.8
20260506025704 60 106 0.0 0.0 0.00 0.01 0.01 92 1005.7
20260506025203 60 105 0.0 0.0 0.00 0.01 0.01 92 1005.7
20260506024203 60 106 0.0 0.0 0.00 0.01 0.01 92 1006.3
20260506023704 60 105 0.0 0.0 0.00 0.01 0.01 92 1006.4
20260506023204 60 106 0.0 0.0 0.00 0.01 0.01 92 1006.5
20260506022705 60 105 0.0 0.0 0.00 0.01 0.01 92 1006.6
20260506022205 60 104 0.0 0.0 0.00 0.01 0.01 92 1006.5
20260506021705 60 104 0.0 0.0 0.00 0.01 0.01 92 1006.5
20260506021204 60 104 0.0 0.0 0.00 0.01 0.01 92 1006.4
20260506020703 60 104 0.0 0.0 0.00 0.01 0.01 92 1006.5
20260506020204 60 104 0.0 0.0 0.00 0.01 0.01 92 1006.4
20260506014704 60 103 0.0 0.0 0.00 0.01 0.01 92 1006.5
20260506013703 60 103 0.0 0.0 0.00 0.01 0.01 92 1006.3
20260506013204 60 103 0.0 0.0 0.00 0.01 0.01 92 1006.3
20260506012703 60 105 0.0 0.0 0.00 0.01 0.01 92 1006.2
20260506011204 60 102 0.0 0.0 0.00 0.01 0.01 92 1006.2
20260506010203 61 103 0.0 0.0 0.00 0.01 0.01 92 1006.4
20260506004704 61 104 0.0 2.0 0.00 0.01 0.01 91 1006.0
20260506004204 61 110 0.0 0.0 0.00 0.01 0.01 91 1005.9
20260506003704 61 109 0.0 0.0 0.00 0.01 0.01 91 1005.9
20260506003205 61 109 0.0 0.0 0.00 0.01 0.01 91 1005.8
20260506002704 61 111 0.0 2.0 0.00 0.01 0.01 91 1005.9
20260506002204 61 109 1.0 3.0 0.00 0.01 0.01 91 1005.8
20260506001704 61 96 0.0 1.0 0.00 0.01 0.01 91 1005.7
20260506001204 61 76 0.0 0.0 0.00 0.01 0.01 91 1005.5
20260506000704 61 74 0.0 0.0 0.00 0.01 0.01 91 1005.3
20260506000205 61 80 0.0 0.0 0.00 0.01 0.01 91 1005.4
20260505235704 61 83 0.0 0.0 0.00 0.01 0.01 91 1005.5
20260505235204 61 82 0.0 0.0 0.00 0.01 0.01 91 1005.7
20260505234705 61 95 0.0 0.0 0.00 0.01 0.01 91 1005.6
20260505234204 61 93 0.0 0.0 0.00 0.01 0.01 91 1005.8
20260505233704 61 100 0.0 0.0 0.00 0.01 0.01 91 1005.8
20260505232704 61 89 1.0 2.0 0.00 0.01 0.01 91 1005.8
20260505231705 61 58 0.0 2.0 0.00 0.01 0.01 91 1005.8
20260505230704 61 70 0.0 2.0 0.00 0.01 0.01 91 1005.9
20260505225704 61 104 0.0 6.0 0.00 0.01 0.01 91 1006.0
20260505225204 61 88 1.0 6.0 0.00 0.01 0.01 91 1006.0
20260505224703 61 78 0.0 1.0 0.00 0.01 0.01 91 1006.1
20260505224205 61 78 0.0 3.0 0.00 0.01 0.01 91 1006.2
20260505223704 61 73 0.0 0.0 0.00 0.01 0.01 91 1006.3
20260505222204 61 67 0.0 6.0 0.00 0.01 0.01 91 1006.4
20260505221203 61 89 0.0 2.0 0.00 0.01 0.01 91 1006.7
20260505220705 61 93 0.0 3.0 0.00 0.01 0.01 91 1006.7
20260505220204 61 71 0.0 1.0 0.00 0.01 0.01 91 1006.8
20260505215704 61 88 0.0 5.0 0.00 0.01 0.01 91 1006.9
20260505215203 61 89 1.0 5.0 0.00 0.01 0.01 91 1007.0
20260505214204 61 81 0.0 6.0 0.00 0.01 0.01 91 1006.9
20260505213704 61 82 2.0 6.0 0.00 0.01 0.01 91 1006.9
20260505213204 61 113 1.0 2.0 0.00 0.01 0.01 91 1006.8
20260505212704 61 91 1.0 3.0 0.00 0.01 0.01 91 1006.9
20260505211704 62 95 0.0 2.0 0.00 0.01 0.01 90 1007.0
20260505211204 62 90 1.0 6.0 0.00 0.01 0.01 90 1007.0
20260505210703 62 93 2.0 6.0 0.00 0.01 0.01 90 1006.9
20260505205704 62 86 2.0 12.0 0.00 0.01 0.01 90 1006.9
20260505205205 62 91 2.0 5.0 0.00 0.01 0.01 90 1006.9
20260505204704 62 91 2.0 6.0 0.00 0.01 0.01 90 1007.0
20260505204204 62 93 1.0 6.0 0.00 0.01 0.01 89 1007.0
20260505203704 62 91 1.0 5.0 0.00 0.01 0.01 89 1007.1
20260505203205 62 89 0.0 5.0 0.00 0.01 0.01 89 1007.0
20260505202704 62 93 1.0 6.0 0.00 0.01 0.01 89 1007.0
20260505202205 62 90 1.0 5.0 0.00 0.01 0.01 88 1007.1
20260505200705 63 84 1.0 5.0 0.00 0.01 0.01 87 1007.2
20260505200205 63 84 1.0 3.0 0.00 0.01 0.01 86 1007.2
20260505195704 63 86 2.0 9.0 0.00 0.01 0.01 85 1007.1
20260505194204 66 78 5.0 12.0 0.00 0.01 0.01 79 1007.5
20260505193203 69 203 5.0 14.0 0.00 0.01 0.01 69 1007.2
20260505192703 69 206 3.0 6.0 0.00 0.01 0.01 67 1007.0
20260505192204 69 223 2.0 7.0 0.00 0.01 0.01 67 1006.9
20260505191703 69 198 4.0 8.0 0.00 0.01 0.01 67 1006.9
20260505191203 69 233 2.0 7.0 0.00 0.01 0.01 67 1006.8
20260505190703 69 193 1.0 3.0 0.00 0.01 0.01 68 1006.8
20260505190204 69 193 3.0 7.0 0.00 0.01 0.01 67 1006.9
20260505185703 69 194 2.0 7.0 0.00 0.01 0.01 67 1006.8
20260505185203 69 200 2.0 7.0 0.00 0.01 0.01 67 1006.9
20260505184704 69 166 0.0 5.0 0.00 0.01 0.01 67 1007.0
20260505184203 69 199 3.0 6.0 0.00 0.01 0.01 67 1007.1
20260505183704 69 208 2.0 6.0 0.00 0.01 0.01 66 1007.2
20260505182203 68 206 4.0 8.0 0.00 0.01 0.01 66 1007.4
20260505181704 68 183 2.0 7.0 0.00 0.01 0.01 66 1007.5
20260505181203 68 188 3.0 8.0 0.00 0.01 0.01 66 1007.5
20260505180703 68 209 3.0 8.0 0.00 0.01 0.01 67 1007.6
20260505180203 68 204 2.0 7.0 0.00 0.01 0.01 67 1007.6
20260505175703 68 180 2.0 8.0 0.00 0.01 0.01 67 1007.6
20260505175203 68 186 2.0 5.0 0.00 0.01 0.01 67 1007.7
20260505174703 68 180 0.0 3.0 0.00 0.01 0.01 68 1007.7
20260505174204 67 202 1.0 3.0 0.00 0.01 0.01 67 1007.8
20260505173702 67 171 1.0 6.0 0.00 0.01 0.01 67 1007.8
20260505173203 67 169 1.0 3.0 0.00 0.01 0.01 67 1007.9
20260505172703 67 188 5.0 13.0 0.00 0.01 0.01 67 1007.9
20260505172203 67 208 1.0 6.0 0.00 0.01 0.01 67 1007.9
20260505171703 67 204 1.0 5.0 0.00 0.01 0.01 67 1007.9
20260505171203 67 206 1.0 6.0 0.00 0.01 0.01 66 1007.9
20260505170703 67 194 1.0 5.0 0.00 0.01 0.01 67 1007.9
20260505170204 67 236 0.0 1.0 0.00 0.01 0.01 67 1008.0
20260505165703 67 167 0.0 2.0 0.00 0.01 0.01 67 1008.0
20260505165203 67 168 1.0 3.0 0.00 0.01 0.01 67 1008.0
20260505164704 67 199 1.0 3.0 0.00 0.01 0.01 67 1008.0
20260505163203 67 183 1.0 5.0 0.00 0.01 0.01 67 1008.0
20260505162703 67 208 1.0 5.0 0.00 0.01 0.01 67 1008.0
20260505162203 67 185 1.0 3.0 0.00 0.01 0.01 67 1008.0
20260505161703 67 190 1.0 13.0 0.00 0.01 0.01 68 1008.0
20260505161203 67 143 2.0 13.0 0.00 0.01 0.01 67 1008.1
20260505160704 67 176 2.0 5.0 0.00 0.01 0.01 68 1008.0
20260505160204 67 202 1.0 3.0 0.00 0.01 0.01 69 1008.0
20260505153204 67 188 3.0 7.0 0.00 0.01 0.01 69 1007.8
20260505152703 67 203 1.0 7.0 0.00 0.01 0.01 69 1007.7
20260505152203 67 193 2.0 5.0 0.00 0.01 0.01 70 1007.7
20260505151703 67 207 2.0 10.0 0.00 0.01 0.01 71 1007.8
20260505151203 67 203 1.0 6.0 0.00 0.01 0.01 73 1007.8
20260505150704 66 142 1.0 3.0 0.00 0.01 0.01 74 1007.8
20260505150204 66 240 2.0 6.0 0.00 0.01 0.01 74 1007.8
20260505140204 61 66 1.0 5.0 0.00 0.01 0.01 85 1007.3
20260505130203 59 79 1.0 3.0 0.00 0.01 0.01 89 1006.9
20260505124203 59 67 0.0 2.0 0.00 0.01 0.01 91 1007.3
20260505123703 59 93 0.0 0.0 0.00 0.01 0.01 91 1007.5
20260505123203 58 81 0.0 2.0 0.00 0.01 0.01 91 1007.6
20260505122204 58 80 0.0 3.0 0.00 0.01 0.01 91 1007.7
20260505121703 58 85 0.0 3.0 0.00 0.01 0.01 91 1007.7
20260505121203 58 92 0.0 2.0 0.00 0.01 0.01 91 1007.7
20260505120704 58 88 0.0 1.0 0.00 0.01 0.01 91 1007.8
20260505120204 58 83 1.0 5.0 0.00 0.01 0.01 91 1007.8
20260505115703 58 92 2.0 5.0 0.00 0.01 0.01 91 1007.9
20260505115203 58 90 0.0 0.0 0.00 0.01 0.01 90 1007.8
20260505114703 58 92 0.0 2.0 0.00 0.01 0.01 90 1007.8
20260505114203 58 97 0.0 2.0 0.00 0.01 0.01 90 1007.9
20260505113703 58 84 0.0 0.0 0.00 0.01 0.01 90 1007.5
20260505113203 58 77 0.0 0.0 0.00 0.01 0.01 89 1007.4
20260505112703 58 76 0.0 0.0 0.00 0.01 0.01 89 1007.3
20260505112203 58 73 0.0 2.0 0.00 0.01 0.01 89 1007.1
20260505111204 58 61 0.0 1.0 0.00 0.01 0.01 87 1006.6
20260505110703 58 93 0.0 0.0 0.00 0.01 0.01 87 1007.0
20260505110203 58 93 0.0 0.0 0.00 0.01 0.01 87 1007.0
20260505102203 60 96 0.0 0.0 0.01 0.01 0.01 84 1008.0
20260505101703 60 101 0.0 0.0 0.01 0.01 0.01 83 1007.9
20260505101203 61 97 0.0 0.0 0.01 0.01 0.01 82 1008.0
20260505100703 61 96 0.0 3.0 0.01 0.01 0.01 81 1008.0
20260505095703 62 26 0.0 1.0 0.00 0.00 0.00 79 1008.1
20260505095203 63 97 0.0 1.0 0.00 0.00 0.00 77 1008.1
20260505094703 63 79 0.0 2.0 0.00 0.00 0.00 75 1007.9
20260505093703 65 74 1.0 7.0 0.00 0.00 0.00 69 1007.8
20260505093204 65 86 0.0 0.0 0.00 0.00 0.00 65 1007.6
20260505092703 65 82 0.0 0.0 0.00 0.00 0.00 64 1007.2
20260505092203 65 80 1.0 3.0 0.00 0.00 0.00 63 1006.9
20260505091703 65 78 0.0 0.0 0.00 0.00 0.00 62 1007.2